GFSCGP_700_spd_057.txt.gz
Wind_Speed
12 20 24 22 25 30 34 39 47 46 40 40 45 51 56 48 41 41 41 41 36 33 32 36 36 38 47 49 44 39 38 41 42 43 46 47 43 36 29 30 30 28 24 26
21 29 24 24 27 31 34 36 44 46 43 37 41 52 51 48 48 42 42 39 38 36 34 34 34 39 51 51 48 46 49 46 46 45 44 39 36 32 29 30 30 26 25 26
25 29 26 27 28 30 33 35 39 42 38 39 42 46 51 49 45 44 44 44 42 38 35 36 34 38 50 56 52 53 54 50 45 45 40 34 34 27 27 31 29 26 25 26
26 20 16 20 27 30 38 33 33 37 37 38 45 29 48 47 48 42 42 45 44 42 41 38 41 50 53 55 54 56 53 44 44 43 35 34 29 27 28 25 25 27 26 24
26 24 24 24 25 24 35 33 35 36 39 42 46 42 39 41 43 46 43 38 39 42 40 39 38 37 52 53 56 54 50 44 42 40 32 32 26 29 27 27 27 27 25 25
26 19 26 29 25 25 27 31 37 39 39 33 47 47 41 39 38 37 36 32 33 34 35 35 36 36 46 54 56 57 55 43 39 37 31 30 27 31 30 29 26 25 24 24
23 21 20 20 23 24 25 27 21 24 24 21 39 48 39 24 24 21 30 28 26 26 28 27 27 25 29 42 42 40 42 39 36 32 30 29 30 33 32 27 25 25 23 24
15 21 14 12 18 23 22 22 19 18 15 22 38 39 52 40 17 8 13 18 19 20 17 20 21 20 18 25 32 31 31 31 32 27 26 29 31 28 26 23 23 23 23 22
17 13 22 20 18 22 30 19 26 36 33 21 26 45 40 49 40 28 21 14 14 13 11 12 15 18 23 25 24 22 27 30 28 27 29 26 23 22 21 20 20 21 21 20
21 28 22 14 16 22 25 25 17 21 18 19 20 29 43 23 40 26 20 17 11 7 6 10 12 20 22 18 18 20 24 26 29 30 26 22 22 22 20 19 20 19 19 20
20 24 24 20 13 15 22 26 20 25 24 10 14 19 29 36 30 30 19 17 8 3 4 8 16 16 19 18 21 22 23 24 27 27 24 23 23 21 19 19 18 18 19 20
22 16 22 25 20 13 21 21 7 15 18 26 25 26 19 24 20 34 23 13 6 1 3 6 14 15 22 22 20 22 24 25 24 23 23 22 21 19 18 18 18 18 19 18
10 10 18 23 12 9 5 16 18 16 19 23 13 11 4 27 24 20 15 8 4 2 5 6 11 9 18 22 23 25 25 25 23 22 22 21 19 17 17 17 17 18 16 15
17 20 22 21 25 15 10 13 13 12 14 23 27 18 12 17 22 14 7 4 5 7 8 7 8 5 22 16 19 24 23 26 25 23 22 20 17 16 15 16 17 14 12 12
18 23 21 26 24 22 19 16 19 21 21 28 31 21 28 26 12 7 9 12 9 7 4 6 6 5 23 26 21 21 23 23 23 22 20 18 15 15 15 15 13 10 10 10
11 18 15 22 20 20 19 21 20 23 24 33 31 30 23 23 23 20 19 14 12 7 6 4 3 8 18 30 24 23 23 23 23 20 17 15 15 14 14 11 8 9 9 9
17 13 10 18 16 13 19 21 22 20 21 24 33 29 25 24 22 19 18 15 14 11 8 4 3 1 18 27 28 24 24 22 21 18 16 15 13 13 10 9 9 8 8 8
23 15 17 21 18 9 17 14 11 14 15 14 24 27 25 23 22 20 19 18 15 13 10 6 3 6 17 26 27 24 23 21 19 18 16 14 12 10 9 9 8 7 7 7
9 15 15 6 12 19 22 22 15 7 15 20 23 21 25 25 26 24 22 20 18 15 11 6 3 6 16 25 24 21 19 18 19 18 14 12 10 9 10 9 8 8 9 8
12 10 16 13 6 5 5 9 10 16 27 15 12 10 14 18 15 7 13 7 8 9 11 10 14 11 16 26 24 21 18 20 19 16 13 11 11 10 10 9 9 9 8 9
10 10 9 16 14 13 13 18 20 12 10 7 17 20 18 22 21 23 19 15 10 15 17 15 17 16 21 29 25 21 19 20 18 15 14 13 11 10 11 9 9 8 8 9
8 6 5 6 6 4 16 27 21 23 31 32 30 29 28 26 26 24 25 30 23 18 15 12 9 21 23 29 26 22 21 21 19 16 15 15 11 11 10 10 8 7 8 10
6 9 11 9 14 22 22 26 40 42 34 25 26 24 27 23 25 26 23 28 23 22 18 11 14 21 27 30 25 23 23 22 19 18 17 12 13 11 10 8 7 7 8 10
15 16 16 19 19 24 29 34 34 25 24 24 24 27 25 26 22 19 20 20 22 17 18 14 20 23 30 30 25 23 24 21 20 19 17 13 13 11 9 7 7 7 9 8
20 24 21 23 22 32 25 36 35 29 23 24 20 17 19 21 21 18 19 20 16 13 10 18 22 27 32 28 25 25 23 23 22 20 16 15 14 11 11 7 6 7 6 8
14 14 18 26 29 32 37 40 36 32 34 17 14 18 16 19 20 23 25 26 25 32 24 19 27 27 31 26 26 25 24 24 22 19 16 15 14 13 8 8 6 6 8 12

GFSCGP_700_spd_060.txt.gz
Wind_Speed
12 15 19 19 21 27 29 32 38 40 36 34 36 45 49 47 46 48 45 41 44 40 38 37 43 43 42 47 47 45 44 39 38 34 32 33 35 38 39 38 34 31 30 28
18 20 19 22 25 29 30 33 39 39 34 31 38 46 44 45 46 47 49 46 46 40 42 34 38 42 45 49 45 48 50 46 41 39 40 39 36 38 41 34 30 29 29 26
20 22 24 25 28 31 33 33 35 37 33 30 37 46 48 46 41 48 46 49 43 45 41 40 39 40 38 42 41 47 51 53 50 45 46 47 38 39 38 32 27 25 27 25
22 23 25 24 24 24 31 29 34 36 35 32 29 29 41 47 46 41 46 45 49 42 45 35 46 42 46 45 43 51 49 54 52 48 50 46 35 38 33 31 27 28 24 24
25 23 25 27 28 27 32 28 29 32 36 38 38 32 40 39 48 45 43 42 45 46 51 45 37 41 46 45 48 48 45 48 50 49 47 39 35 36 29 29 31 28 25 24
22 22 23 26 35 29 28 26 28 31 35 28 44 40 45 45 43 42 41 43 41 41 39 48 46 45 48 48 45 46 48 48 48 45 47 39 36 30 27 30 32 27 25 23
21 23 14 15 13 19 19 22 21 21 19 19 42 43 48 34 45 40 39 36 39 44 45 38 42 46 40 40 45 47 43 50 50 50 46 34 38 27 31 32 29 27 24 23
18 22 17 19 19 22 23 26 15 9 15 18 31 19 45 43 43 43 23 23 31 43 34 35 35 36 37 37 35 35 37 43 42 41 39 36 28 27 33 31 29 27 23 22
20 23 26 22 22 17 23 26 29 26 30 22 20 33 35 31 50 43 26 18 16 17 22 27 25 25 29 29 25 28 32 33 35 34 34 26 26 29 28 29 27 24 20 19
19 30 25 27 21 21 24 28 28 12 5 8 17 22 21 25 40 38 32 22 16 18 16 15 17 21 29 33 35 31 32 26 28 29 26 26 25 27 27 23 23 21 20 18
22 23 27 22 21 23 25 25 22 21 18 13 10 17 14 21 33 27 38 25 21 12 14 12 15 22 22 23 24 29 24 28 27 27 28 26 27 25 21 22 22 19 18 17
17 17 26 27 24 23 17 23 20 8 19 20 13 27 20 22 22 22 45 30 24 18 10 6 16 18 18 21 20 26 25 25 24 27 26 26 25 22 22 23 19 17 17 18
21 10 23 19 16 18 28 22 21 18 20 23 18 22 32 14 9 19 24 20 14 16 8 3 10 5 14 19 26 21 22 21 22 25 27 26 24 22 22 20 18 15 17 18
24 19 22 20 26 27 25 26 19 24 18 24 22 30 32 35 24 14 10 15 8 7 2 3 2 4 20 17 17 20 20 23 23 25 25 23 23 21 20 18 15 15 16 18
13 22 19 22 26 27 27 28 28 29 33 27 25 24 28 30 31 19 16 11 3 2 1 2 3 8 25 24 20 21 24 24 25 24 22 22 22 20 18 15 13 13 15 14
14 16 18 26 21 22 25 27 29 27 33 34 27 23 18 12 24 16 15 9 3 2 4 4 2 7 18 26 23 20 26 23 25 24 22 21 19 18 15 12 12 13 12 12
23 19 16 27 18 22 19 6 19 33 27 29 19 16 17 16 16 19 8 6 8 4 8 5 3 6 25 27 26 26 24 23 22 22 20 19 19 16 11 11 11 11 11 11
11 13 19 22 20 12 11 5 15 24 29 23 23 16 16 13 17 14 12 11 10 8 8 9 4 10 22 30 31 29 25 24 22 21 18 18 17 11 11 11 11 10 10 8
7 6 8 6 13 21 27 17 17 20 34 17 20 18 14 15 19 16 10 11 11 12 11 11 3 8 13 30 29 27 24 22 21 19 17 15 13 11 12 11 9 9 8 7
11 12 9 7 5 4 6 10 12 21 28 23 21 14 13 11 12 16 19 16 10 9 9 11 13 13 10 25 30 26 22 21 18 16 15 11 13 11 10 9 9 8 9 9
10 13 16 13 11 11 15 15 21 6 14 31 28 26 30 31 19 19 22 18 24 16 8 18 13 17 13 23 31 29 22 18 17 15 13 14 16 10 9 9 10 9 9 9
13 8 10 6 6 5 12 18 16 18 30 38 37 37 36 37 31 25 30 26 26 24 19 12 2 15 13 24 33 27 23 20 20 16 18 18 14 12 10 10 9 8 8 9
9 12 20 13 19 23 24 25 28 23 40 33 35 31 29 31 31 27 25 34 30 33 19 16 9 13 16 26 33 29 23 25 21 20 21 15 11 13 11 9 8 8 8 8
21 20 28 27 29 24 24 24 29 35 43 37 27 23 29 31 30 27 28 33 31 33 19 16 10 15 19 28 33 27 21 25 22 24 19 15 15 13 10 9 8 7 6 7
25 26 34 30 20 21 22 27 39 42 37 35 25 27 22 27 28 29 30 29 30 27 16 9 13 18 21 32 31 27 21 25 24 23 18 13 15 11 10 9 8 6 5 7
19 26 23 19 23 23 33 38 42 42 35 33 37 24 23 24 25 29 31 32 30 31 27 21 22 21 24 37 30 28 24 27 28 24 16 12 14 14 15 11 8 7 9 8

GFSCGP_700_spd_063.txt.gz
Wind_Speed
9 12 12 12 18 23 26 30 32 37 27 27 29 35 42 36 35 28 46 44 37 41 48 54 49 37 34 44 44 41 46 49 49 46 41 39 37 36 32 30 30 34 32 27
13 14 13 17 19 23 25 29 36 38 31 27 33 39 46 43 42 39 28 42 45 51 46 44 49 45 42 44 46 52 48 47 45 42 40 41 38 40 37 34 36 36 32 24
12 16 16 19 24 26 27 29 34 37 32 28 32 37 45 54 45 47 44 36 33 48 47 41 52 39 41 46 47 48 49 47 46 43 42 43 44 42 42 40 38 36 30 21
14 17 20 21 24 24 30 28 27 28 26 25 24 28 39 47 48 46 43 44 41 30 52 42 44 47 39 37 47 51 52 49 50 47 46 45 46 47 43 40 33 38 27 20
22 23 18 24 25 25 36 29 29 34 31 30 28 27 39 30 39 47 47 41 43 43 32 50 37 48 39 40 43 40 41 42 44 48 49 49 49 44 35 33 35 33 24 20
20 21 21 15 23 22 24 26 30 28 25 19 32 30 42 42 47 49 46 42 41 34 37 43 46 42 38 34 46 50 49 44 47 50 50 49 44 38 35 34 38 29 22 21
18 15 13 21 18 21 20 18 7 6 7 13 29 14 27 40 41 45 48 39 43 29 32 42 49 40 52 42 39 45 48 47 50 52 53 48 43 36 35 34 35 24 20 22
16 16 17 12 21 25 26 21 10 6 9 15 27 16 39 41 36 37 42 40 41 33 26 42 42 42 41 53 48 43 46 51 52 54 59 54 49 36 37 38 30 22 22 23
14 17 20 17 21 22 30 24 20 19 24 4 14 36 38 29 25 24 38 40 43 32 33 41 44 43 41 41 54 49 47 44 46 50 47 46 38 38 36 34 25 22 24 23
12 21 25 21 25 23 20 22 24 11 4 6 11 21 19 17 20 23 21 25 24 32 22 30 44 45 46 47 47 48 52 50 42 34 33 35 36 30 30 31 24 24 21 20
16 13 22 27 19 25 26 18 18 11 8 4 5 6 17 28 27 28 21 20 19 20 20 19 32 41 43 45 46 49 47 44 38 36 33 29 27 29 28 27 26 23 19 19
17 16 19 24 17 18 13 21 19 4 7 12 17 20 27 21 36 46 38 22 26 7 24 24 21 29 27 36 47 45 41 45 42 33 27 28 28 28 27 27 20 17 18 19
21 6 14 14 6 9 22 23 22 24 21 15 8 11 24 30 41 42 23 13 20 10 15 15 15 19 27 26 34 38 43 37 34 25 23 26 28 27 26 18 18 19 20 18
16 17 14 16 25 28 33 34 28 29 18 27 27 35 26 24 32 25 5 12 8 21 7 3 7 11 16 24 28 32 30 27 24 22 26 26 26 23 20 20 20 20 17 15
14 21 19 22 25 26 30 34 30 27 28 29 30 11 20 27 26 32 17 18 11 6 10 2 6 6 18 21 23 24 25 24 24 27 28 27 26 25 24 23 20 17 14 15
20 30 23 33 27 22 28 30 27 20 14 29 20 15 19 17 15 22 14 19 18 13 19 10 3 3 20 22 26 25 26 28 25 28 27 25 25 22 19 19 18 15 14 15
28 23 17 24 16 21 23 18 11 12 14 17 17 15 12 9 8 13 18 15 5 14 6 2 8 11 16 22 27 29 29 30 29 28 24 23 21 20 19 18 15 13 12 11
23 16 10 15 15 3 4 12 16 20 18 22 15 12 9 10 10 12 4 11 10 11 5 1 7 22 9 18 25 34 30 28 24 25 20 20 21 19 17 15 12 11 10 9
16 12 8 5 12 23 19 14 16 22 25 6 3 14 21 21 18 15 12 13 15 10 9 5 12 17 17 14 31 32 30 21 23 22 20 22 19 19 16 12 10 10 9 8
15 17 12 7 5 4 13 23 24 24 12 3 15 28 25 23 24 15 19 19 20 18 19 25 16 10 16 16 24 32 24 21 21 18 21 20 19 14 10 12 12 12 11 11
12 14 20 21 12 13 15 20 25 12 11 26 26 29 33 29 27 24 14 26 25 26 28 30 24 17 17 9 18 27 22 24 17 18 19 17 12 8 10 13 12 12 11 10
15 10 8 8 7 8 11 21 28 30 33 31 28 35 42 35 30 28 27 22 27 29 28 25 21 27 20 4 33 27 25 13 15 17 16 15 12 5 12 12 12 11 9 9
13 8 17 20 20 28 35 38 23 32 35 39 41 44 39 34 29 26 24 21 26 31 30 22 16 16 12 7 23 28 22 18 16 15 16 15 8 4 9 11 12 10 9 9
26 27 32 26 30 24 41 32 21 30 37 41 43 45 38 30 30 28 27 23 28 34 30 20 19 12 4 4 26 26 22 24 18 12 13 11 9 8 12 13 12 9 9 9
29 32 31 34 35 29 25 20 28 30 40 46 48 41 37 32 31 30 28 27 30 37 27 23 22 18 5 10 31 26 25 24 20 16 16 15 14 10 13 12 10 9 8 8
24 24 24 31 35 31 25 30 34 42 47 46 42 42 42 38 31 28 31 29 34 35 35 30 26 13 14 15 34 27 21 25 24 22 19 15 13 14 17 13 10 10 9 8

GFSCGP_700_spd_069.txt.gz
Wind_Speed
3 4 5 3 6 8 9 11 14 15 13 21 28 38 37 32 30 31 33 37 41 52 64 52 52 49 43 39 34 29 30 36 34 38 39 37 33 33 34 34 35 34 33 35
6 8 4 5 9 11 14 18 23 24 23 24 30 44 39 37 38 35 35 36 41 43 45 63 52 51 48 47 40 33 34 32 39 41 42 43 37 36 31 34 38 36 35 36
1 6 5 11 9 12 16 20 25 27 29 30 33 49 41 38 36 37 36 36 38 42 46 46 48 53 52 51 43 45 40 38 36 44 52 43 41 37 37 46 45 38 35 35
2 7 15 8 10 15 20 18 23 22 21 16 17 21 33 28 29 29 30 31 35 41 48 51 51 50 51 48 45 49 45 46 41 39 42 44 44 40 42 40 39 36 36 35
14 16 11 12 14 12 16 16 18 20 24 24 22 17 28 22 39 33 26 24 27 33 45 54 56 54 49 51 49 45 50 52 49 45 44 41 46 41 37 38 40 38 40 39
19 17 11 10 13 15 15 18 21 19 20 7 19 19 40 20 23 22 29 33 33 33 34 44 58 60 55 47 50 46 44 53 54 45 44 46 41 40 37 42 42 39 36 36
11 10 11 15 17 13 14 20 6 4 2 5 5 10 37 33 34 36 34 29 28 28 31 36 43 57 62 52 45 50 49 46 53 63 44 43 47 46 42 45 44 40 39 40
8 7 10 15 16 20 22 19 6 5 4 11 32 10 27 27 28 23 21 21 27 29 28 34 35 41 60 64 50 46 52 46 46 55 51 41 45 43 44 43 44 41 40 39
8 10 8 18 20 18 8 14 18 14 19 5 19 33 36 25 18 18 27 28 29 34 38 37 38 38 42 55 60 47 49 46 43 48 44 39 46 36 39 42 41 39 39 40
9 18 18 12 12 17 21 11 9 7 3 5 9 18 22 19 27 27 29 31 39 36 35 35 38 36 34 44 64 56 46 48 40 43 39 41 46 36 37 37 40 39 37 41
16 14 13 20 15 16 15 15 8 11 9 3 4 8 10 28 26 29 34 37 38 44 48 32 29 30 37 39 61 65 49 47 44 39 37 40 43 38 36 40 39 37 41 38
16 11 17 24 11 7 7 15 12 5 5 10 10 28 28 17 32 34 29 34 36 53 47 25 22 30 36 41 46 53 59 50 48 37 34 40 40 39 39 39 39 40 39 34
14 6 10 12 1 4 3 12 13 21 22 21 11 20 30 36 33 31 35 36 38 40 24 7 11 24 32 24 42 46 48 52 52 41 36 36 40 42 41 40 38 40 38 34
21 24 22 18 23 27 32 32 31 27 19 25 30 45 39 36 30 28 30 33 41 36 6 5 13 21 28 14 24 44 54 51 50 47 42 40 42 42 39 39 43 38 33 28
22 29 27 28 27 30 36 30 25 31 35 31 39 40 39 32 30 29 29 30 34 19 11 6 13 4 9 21 26 29 32 33 34 37 41 39 39 39 40 40 38 29 27 27
15 18 18 23 30 23 27 35 30 25 30 31 34 35 29 26 27 28 27 30 34 39 17 19 33 21 1 5 19 26 30 31 31 33 37 41 39 40 40 40 31 28 29 26
27 26 26 26 17 21 24 5 8 13 12 19 28 33 30 34 21 20 29 32 32 40 21 30 31 15 13 8 8 20 26 28 28 29 32 35 37 41 39 35 32 29 24 22
30 27 20 16 21 4 7 15 20 17 20 21 28 29 23 14 24 28 25 23 27 35 28 32 26 14 11 9 10 17 19 25 30 32 32 31 33 31 33 30 31 26 24 24
12 22 17 7 8 20 24 8 7 15 33 26 20 15 18 31 36 31 27 28 29 29 30 27 23 17 13 10 9 15 25 27 30 28 29 29 32 37 32 30 28 26 26 24
2 11 21 8 5 6 10 13 19 25 29 9 22 29 39 39 42 35 31 30 30 20 29 31 22 15 14 14 15 11 29 33 31 27 26 31 36 34 30 28 28 26 25 22
4 10 20 21 13 16 18 15 16 11 25 36 40 43 41 42 35 39 35 40 31 21 20 22 20 15 14 16 18 14 20 38 30 29 32 35 34 30 29 28 27 24 22 21
10 9 8 10 10 10 4 14 28 39 40 38 43 42 33 34 35 38 41 45 29 21 19 19 16 13 14 15 21 10 14 57 40 36 37 35 29 31 30 28 25 24 21 20
10 9 15 16 18 31 39 37 31 38 43 41 39 32 34 38 38 40 46 40 24 23 18 16 15 12 13 10 8 3 16 25 33 25 29 34 32 30 27 26 23 20 21 20
22 26 32 34 37 31 31 25 30 26 25 33 34 39 42 43 43 45 40 33 22 22 17 14 13 14 12 11 5 7 21 17 11 27 27 29 26 26 24 22 21 19 19 18
30 27 27 33 30 34 29 28 30 30 31 37 41 44 45 46 47 45 41 29 24 23 15 16 14 14 12 10 12 14 41 14 34 31 28 25 22 21 22 22 21 21 17 13
28 27 28 37 31 31 33 31 34 39 39 44 50 51 50 51 48 41 34 27 26 25 16 16 13 16 13 6 30 20 22 35 32 31 24 17 17 16 18 19 19 17 15 13

GFSCGP_700_spd_072.txt.gz
Wind_Speed
5 5 4 1 3 3 5 8 12 15 18 25 30 36 33 32 32 31 32 33 37 44 44 40 43 54 52 45 40 36 35 40 33 40 43 43 43 43 40 34 32 27 30 30
9 8 5 4 6 5 8 12 16 20 17 26 31 43 40 37 36 32 33 35 38 41 42 42 42 44 49 51 50 45 40 35 43 41 37 36 44 45 42 42 29 31 31 31
4 7 5 6 7 7 10 16 17 18 22 22 20 34 21 20 25 26 32 35 37 40 44 46 46 45 44 43 47 51 50 43 41 45 46 38 34 43 36 37 34 29 33 32
4 3 10 9 7 11 18 15 15 17 18 16 23 9 32 14 13 21 27 24 30 37 43 44 47 49 50 48 43 46 51 50 48 45 45 44 46 41 42 39 36 34 33 33
12 14 16 15 12 12 17 14 18 21 25 24 16 15 3 14 22 20 17 20 22 26 32 37 48 50 54 56 51 45 48 51 50 51 51 47 44 44 48 45 38 33 35 34
19 16 15 10 10 13 15 17 20 21 14 5 11 12 8 2 6 27 24 26 27 27 28 31 35 42 52 56 57 54 46 49 51 49 52 52 48 44 43 47 41 37 38 37
17 11 13 14 15 15 14 15 8 5 1 5 3 13 29 25 35 24 23 21 19 21 24 27 31 37 41 47 56 57 56 50 49 51 50 52 49 48 45 41 40 36 39 38
8 6 12 12 13 16 20 19 6 5 3 7 21 15 22 34 37 33 19 19 20 26 28 29 31 34 38 39 42 56 60 58 52 53 49 49 50 53 49 42 39 37 35 35
6 8 9 13 14 20 8 8 10 17 20 7 13 27 37 25 15 9 20 24 28 32 29 35 35 39 40 40 41 44 59 63 57 54 53 46 49 49 58 49 41 40 37 35
9 11 17 14 15 12 17 16 7 5 3 5 8 18 25 26 19 16 22 25 32 34 32 34 41 41 43 41 40 45 52 60 62 54 54 47 45 46 51 49 43 44 37 36
13 11 12 13 15 17 13 14 11 9 11 4 5 10 13 18 27 22 29 34 32 35 34 40 47 52 45 44 44 45 46 56 62 60 53 49 44 44 46 45 41 36 34 35
15 12 14 22 11 15 15 17 17 10 6 10 7 33 36 34 20 24 38 33 34 36 39 40 49 29 29 43 46 45 45 54 61 60 49 47 40 43 45 41 34 31 35 34
10 8 6 8 3 7 6 5 13 18 24 22 12 24 13 19 36 38 35 36 35 37 40 42 35 22 22 34 41 41 41 49 58 62 49 43 40 40 42 38 33 35 36 34
18 19 21 19 15 17 31 32 27 26 20 27 40 50 53 45 39 33 35 34 37 36 42 49 45 19 24 27 31 31 33 42 54 60 50 41 41 40 38 34 34 37 34 33
24 34 32 35 30 28 32 33 31 31 34 33 52 40 48 37 34 33 31 37 33 36 37 44 51 10 20 27 30 30 26 35 43 60 51 43 41 35 36 34 37 36 34 32
14 15 14 21 21 27 33 32 31 30 23 31 35 41 30 30 30 30 34 28 36 32 36 46 39 16 18 16 15 31 18 29 40 48 55 47 44 35 33 32 33 33 33 34
23 17 12 21 18 14 20 25 11 13 18 20 23 30 28 31 31 23 26 34 31 31 38 43 31 26 35 21 6 31 14 33 35 36 40 42 41 35 31 33 35 33 34 30
33 29 21 19 12 6 14 11 13 26 29 22 26 34 29 23 27 27 38 42 33 31 38 36 13 37 35 31 22 7 28 29 32 30 32 34 33 34 36 35 33 30 30 29
18 25 18 7 10 18 30 16 14 16 30 22 24 13 28 36 31 37 43 35 31 34 40 33 32 34 22 19 19 6 23 25 28 29 30 32 34 35 35 33 31 25 30 31
2 9 21 7 5 5 11 15 22 23 29 9 29 34 37 34 42 43 32 29 30 33 39 34 29 22 14 14 12 10 11 22 30 35 36 36 33 31 27 25 24 35 33 27
4 6 16 18 13 14 25 20 16 10 15 44 43 38 38 44 42 38 31 33 34 37 39 32 25 19 14 12 10 8 7 18 23 28 32 32 27 25 27 28 36 35 30 28
4 5 8 9 8 9 9 18 27 35 50 46 43 43 36 34 29 30 34 36 36 38 35 28 20 15 13 13 12 5 5 13 24 27 28 29 29 31 33 32 32 30 28 26
5 5 16 17 21 31 37 38 37 35 40 36 35 35 34 37 39 41 39 37 37 37 32 22 16 12 13 11 8 5 2 12 30 29 28 32 33 31 31 32 30 28 26 24
18 25 27 27 27 28 30 29 23 24 28 31 36 37 39 42 41 44 43 42 40 36 28 19 13 12 13 11 8 3 6 10 33 33 34 34 39 32 29 30 27 25 23 20
23 20 21 27 26 30 25 26 32 34 36 39 41 43 43 48 51 51 47 36 33 28 20 18 15 13 15 11 11 7 6 10 28 38 36 35 31 31 32 29 26 23 20 17
22 23 25 34 23 25 33 35 38 41 43 47 51 55 53 52 50 43 36 32 29 20 17 18 13 12 13 12 11 12 7 22 19 33 35 32 29 29 27 26 27 26 23 21

GFSCGP_700_spd_075.txt.gz
Wind_Speed
9 7 7 7 3 4 4 5 7 11 14 21 24 30 32 33 36 36 33 32 35 48 41 40 37 34 35 33 37 32 42 45 36 36 26 47 51 54 48 44 41 36 35 29
11 13 9 7 6 5 6 8 11 16 15 18 22 29 24 22 24 30 34 36 36 34 39 43 43 43 39 37 38 41 36 35 39 39 44 38 46 51 46 42 42 39 36 34
2 6 3 3 7 8 8 11 12 13 18 21 19 21 13 12 22 19 14 25 30 33 37 41 44 48 48 43 41 43 42 42 45 44 38 43 42 48 48 45 42 41 36 38
6 8 5 8 9 9 11 9 11 14 13 13 13 12 18 8 4 8 7 13 18 20 25 33 39 45 50 50 47 47 48 51 52 53 47 41 44 45 46 46 44 39 44 31
9 10 14 17 15 12 11 14 14 16 18 19 17 11 8 6 10 5 3 7 11 15 22 24 29 35 40 49 49 49 51 51 56 58 56 52 47 49 44 43 43 42 38 34
22 18 18 13 11 12 14 15 18 19 13 8 8 10 6 6 4 7 25 17 15 17 18 21 24 28 31 35 41 46 50 53 52 51 54 58 54 51 52 50 43 46 42 38
21 22 20 15 16 16 16 10 8 4 5 4 4 13 17 11 15 23 23 23 18 18 17 22 26 28 29 30 34 41 47 52 56 54 55 54 56 57 54 50 48 49 47 46
14 14 14 15 17 13 12 10 8 5 4 7 16 12 7 11 27 20 14 11 12 17 24 28 29 28 28 31 33 37 44 50 55 57 57 55 55 55 56 56 52 49 47 46
7 11 16 15 18 14 10 9 9 12 15 11 11 19 24 9 7 9 12 11 16 22 29 29 30 33 34 34 36 39 39 46 51 56 58 59 55 55 54 52 53 51 47 48
12 11 16 15 19 20 17 11 5 6 4 6 7 23 21 20 10 12 19 10 20 27 30 31 34 33 36 40 41 42 41 41 48 50 52 57 57 51 51 51 55 53 49 45
16 13 12 11 9 10 12 15 11 10 7 4 8 9 10 17 23 22 19 20 34 35 34 33 34 36 39 39 43 46 45 43 42 47 50 52 59 54 47 46 51 52 51 50
16 13 18 20 17 20 17 16 16 13 8 12 19 36 26 19 11 15 23 40 30 31 32 36 36 36 42 46 51 46 48 46 44 44 50 52 55 56 48 45 45 47 48 47
12 9 11 11 6 10 11 16 15 15 14 22 15 21 15 27 37 37 34 28 29 33 37 38 39 40 45 48 49 47 48 51 50 46 47 51 54 57 51 45 39 41 46 45
19 18 21 22 16 8 9 13 15 21 21 27 30 47 41 33 31 27 22 26 31 33 31 36 41 41 45 51 38 38 40 43 48 47 46 48 53 57 48 42 39 43 43 40
27 29 27 30 31 29 33 35 32 31 35 32 38 35 33 27 23 23 24 24 28 25 33 36 39 44 48 41 27 34 39 39 39 43 42 45 49 54 46 41 42 42 40 39
22 19 19 23 19 20 24 32 33 36 37 36 38 36 21 29 32 27 23 27 29 34 43 39 37 42 47 30 27 29 41 38 40 39 39 41 50 52 45 41 43 39 39 35
17 14 11 20 14 16 18 29 25 26 23 21 24 25 25 30 19 22 27 28 33 39 40 34 36 41 34 29 35 39 39 37 38 42 41 43 58 50 41 42 43 41 36 30
31 23 21 23 17 11 14 17 13 13 19 19 20 18 19 21 34 38 33 32 36 36 32 33 36 39 32 35 24 36 15 38 39 37 39 50 59 49 38 42 42 36 32 30
21 28 22 9 14 18 21 17 17 9 17 19 15 16 20 38 42 34 30 34 37 32 32 35 37 40 30 33 38 32 1 27 19 25 38 52 52 47 40 39 36 32 33 34
5 21 22 7 6 4 4 12 18 20 22 20 16 24 42 48 40 41 39 32 29 28 35 34 35 37 27 25 27 31 12 13 32 29 37 44 43 41 43 40 35 33 33 33
6 8 22 17 10 12 12 16 14 7 14 24 38 45 48 43 42 43 38 34 34 36 37 35 33 34 26 22 18 17 7 12 24 31 34 39 41 38 34 33 33 33 35 33
9 5 3 7 7 8 6 18 21 31 45 43 45 41 38 40 40 38 40 41 42 43 36 33 36 30 21 18 11 7 3 15 19 26 34 35 37 35 35 34 34 34 33 34
4 7 12 11 14 25 28 26 31 35 35 28 29 33 37 41 46 46 47 44 43 43 43 37 38 25 15 11 7 3 7 16 17 24 29 31 32 33 33 32 30 35 35 32
12 16 16 20 19 24 18 21 26 28 32 35 36 37 40 43 47 50 51 49 49 47 44 38 30 20 12 10 7 2 3 7 20 26 29 31 33 33 33 32 31 29 29 29
13 16 23 29 32 30 27 30 32 35 36 38 40 48 52 53 53 52 51 50 48 44 30 25 21 16 12 12 10 6 5 9 23 23 24 25 27 32 34 32 28 26 25 23
17 19 30 35 27 27 35 39 39 39 42 49 54 46 41 42 40 41 41 39 34 22 19 20 16 14 15 14 14 7 10 13 20 23 26 29 35 32 28 27 27 27 25 25

GFSCGP_700_spd_078.txt.gz
Wind_Speed
9 8 12 11 11 11 10 13 14 14 15 17 20 25 27 27 28 27 28 27 33 40 39 31 31 27 25 28 37 34 34 43 34 29 42 42 37 47 45 46 48 43 37 39
10 15 13 11 10 10 12 14 16 16 15 16 20 27 28 27 27 25 26 29 34 34 35 40 41 40 38 30 27 35 33 35 38 41 33 36 35 40 49 53 47 45 46 44
11 8 9 9 10 12 14 16 15 16 17 20 22 27 21 15 14 14 19 19 25 30 37 41 42 44 45 42 37 34 34 34 36 39 56 56 37 36 40 47 49 50 48 46
10 11 7 8 10 11 15 13 13 16 18 19 12 14 15 17 16 9 6 7 9 12 25 32 40 42 42 39 41 42 41 37 34 35 34 35 57 47 40 49 38 36 47 44
12 11 12 14 14 15 18 13 16 17 21 24 24 19 19 11 11 9 6 5 6 10 12 25 30 36 39 39 39 38 41 43 42 40 37 37 38 42 43 43 40 33 38 45
23 18 18 18 15 13 14 15 18 21 20 19 25 22 14 11 10 12 7 10 10 10 12 19 23 28 33 34 35 33 34 36 43 47 47 46 48 51 53 50 44 41 34 42
22 24 21 19 19 15 14 16 16 14 13 12 3 9 18 11 9 10 16 14 14 14 13 17 21 25 28 30 33 33 37 36 38 45 50 52 51 52 50 49 47 44 41 37
23 22 20 17 20 19 16 15 17 13 11 10 7 9 2 7 12 13 12 8 8 9 12 16 20 28 28 30 32 36 39 44 44 43 47 53 56 55 53 52 51 49 46 46
12 20 17 16 16 16 16 16 15 21 25 21 22 18 16 13 7 8 9 8 11 13 15 19 20 29 32 32 33 35 37 40 45 48 46 50 56 60 58 55 53 54 53 50
18 20 21 19 15 21 22 18 12 15 8 14 13 15 13 9 9 8 9 15 16 17 21 22 23 31 32 35 37 36 39 41 41 45 50 51 52 57 62 59 56 56 54 54
14 17 18 14 19 18 15 19 21 18 21 10 12 5 3 7 11 14 14 17 17 24 26 24 24 26 34 36 38 41 42 44 45 44 46 52 53 52 55 59 56 54 53 53
14 15 20 23 20 19 23 24 23 23 20 24 22 23 13 3 9 14 18 25 27 25 22 22 25 26 30 37 40 41 44 47 48 48 48 49 53 51 51 54 57 52 52 51
15 15 18 18 15 12 17 21 25 26 26 24 17 20 11 16 24 24 24 25 23 23 23 23 23 23 24 30 37 42 45 48 51 53 52 52 51 49 52 52 54 53 50 50
18 23 26 23 20 12 10 13 17 24 25 24 33 38 30 30 27 23 24 24 23 22 20 20 22 23 27 32 38 42 46 50 53 55 57 56 52 50 50 50 53 56 51 50
21 27 26 29 29 28 31 30 29 30 33 38 42 42 34 31 28 28 27 25 22 21 23 25 27 30 33 34 38 45 48 41 44 51 52 51 53 49 48 50 54 59 52 49
24 38 30 33 26 26 29 30 34 36 39 42 41 44 36 31 28 24 27 24 25 27 27 28 30 35 30 33 40 47 44 36 39 42 47 42 51 49 45 49 53 58 53 47
21 19 19 26 19 17 20 28 27 30 32 34 36 32 24 23 25 25 26 28 29 31 32 33 36 35 35 39 42 47 44 44 45 45 43 45 47 46 44 46 54 58 49 44
26 21 17 17 16 13 22 13 13 15 16 18 22 24 25 26 25 26 28 32 32 28 33 36 34 36 40 42 42 48 45 34 34 45 48 43 43 44 44 48 59 52 47 42
28 27 19 13 15 21 24 14 13 15 23 17 20 22 23 25 30 32 28 28 30 34 35 33 31 36 44 46 44 41 46 55 29 39 48 44 45 44 46 52 59 51 45 44
5 27 23 11 7 5 3 7 13 14 25 4 6 14 22 29 41 39 33 37 41 35 33 34 36 41 45 42 40 48 45 42 18 21 41 46 45 45 48 60 55 49 44 43
9 4 27 25 13 12 12 10 11 10 12 21 27 31 36 37 34 36 37 40 40 38 37 37 39 43 43 40 41 42 41 28 26 38 53 44 46 47 54 53 48 48 45 40
4 4 6 10 7 7 7 17 16 26 35 34 33 29 33 37 39 37 38 39 40 38 39 39 39 41 41 30 40 34 30 27 34 40 41 43 49 54 52 47 49 47 42 39
4 5 9 7 10 19 23 22 24 28 32 35 36 38 41 42 43 40 41 44 45 44 43 43 45 43 38 29 28 22 21 15 21 41 37 40 47 45 43 46 46 45 42 38
9 12 10 16 7 20 28 20 26 28 33 35 38 39 40 44 43 48 49 53 51 50 44 45 44 36 30 18 15 12 8 7 17 33 34 37 41 42 42 40 39 38 35 35
12 14 14 22 22 27 29 28 31 37 38 37 42 44 48 52 52 51 49 48 46 42 37 36 28 22 13 13 9 2 5 3 23 22 26 31 35 38 38 37 33 31 29 31
14 18 25 38 37 26 35 35 38 36 41 45 54 52 43 44 46 41 33 24 21 24 25 19 14 12 13 14 11 5 2 5 15 24 26 27 28 29 29 30 32 31 31 30

GFSCGP_700_spd_084.txt.gz
Wind_Speed
10 13 16 15 18 21 23 24 24 26 22 17 21 27 23 22 24 27 27 26 27 27 27 28 26 36 44 43 41 44 49 35 35 43 37 49 48 44 41 37 39 41 36 38
14 18 17 17 19 21 20 23 25 26 25 25 29 32 29 29 31 32 33 33 30 27 27 30 29 34 42 45 41 40 35 34 35 38 51 43 40 49 51 53 46 25 34 39
17 19 19 17 19 19 22 23 24 26 25 27 29 32 30 34 35 34 34 34 33 32 30 32 35 39 38 42 45 43 34 30 38 39 47 39 46 59 44 58 43 39 40 38
20 19 21 20 20 18 22 19 21 23 25 26 23 26 34 31 29 25 18 24 26 28 29 24 35 33 36 41 41 42 37 36 33 40 43 57 42 52 55 43 55 46 46 38
25 19 20 22 22 20 25 21 23 26 29 31 30 27 38 29 31 32 30 24 23 21 20 27 30 35 35 41 44 40 36 36 36 37 38 41 47 41 55 43 55 48 49 37
28 25 26 28 25 23 23 23 25 26 30 23 37 35 41 34 34 31 26 22 17 15 13 19 22 24 32 31 27 25 35 35 33 37 38 40 39 39 41 44 38 56 60 43
27 29 29 26 30 30 28 26 21 22 19 16 34 25 18 31 15 8 18 18 14 14 15 17 16 21 19 14 17 25 28 22 30 33 39 42 43 44 47 41 42 36 61 54
31 31 24 23 23 29 30 29 20 15 15 18 34 8 23 19 7 15 9 16 17 15 14 17 17 20 15 17 22 24 30 27 26 27 34 38 43 49 50 47 45 44 36 59
31 38 29 25 23 23 26 31 28 30 24 17 33 38 35 32 38 20 17 19 18 16 14 18 19 23 18 17 22 26 30 31 29 27 26 30 35 42 48 53 53 49 49 38
24 33 27 28 25 28 25 26 27 24 7 18 22 28 24 24 16 20 16 17 14 14 15 14 19 20 20 23 24 29 31 30 29 27 31 28 28 32 38 45 51 58 56 57
23 26 32 27 28 32 27 30 30 27 27 15 16 23 22 15 3 21 16 15 13 13 15 18 17 21 23 26 22 24 27 27 27 32 35 33 30 29 31 34 41 48 58 60
24 26 30 25 24 26 29 34 30 35 17 23 22 32 8 10 12 16 12 15 18 17 15 16 19 23 26 25 23 25 27 31 34 38 41 36 34 35 34 33 35 40 48 55
18 14 20 23 26 27 16 23 21 23 18 28 19 32 25 24 32 26 20 26 20 15 18 20 21 21 24 24 25 26 27 29 32 36 37 41 45 36 35 37 36 37 41 47
24 22 26 26 33 37 26 24 19 24 20 24 26 35 28 30 26 29 36 32 26 24 22 25 25 25 27 26 27 28 28 28 29 30 33 39 49 40 34 36 39 39 39 41
10 22 26 25 30 30 34 34 31 26 30 29 35 36 36 35 36 32 33 31 29 32 27 27 25 25 26 28 32 31 34 36 41 41 45 39 48 50 42 42 41 42 39 40
21 17 21 28 27 32 37 35 36 35 33 36 36 39 34 35 35 36 36 35 32 24 21 25 27 26 27 28 31 36 43 40 45 43 49 54 59 52 45 48 48 43 41 41
23 24 24 31 25 27 24 28 33 30 28 28 27 29 27 32 26 23 30 27 33 29 26 26 30 30 32 36 41 42 45 53 52 56 60 65 51 49 43 46 48 47 44 44
17 17 20 26 22 19 28 12 11 15 17 18 23 21 22 19 20 23 16 17 20 21 27 33 39 42 45 47 50 54 50 53 55 60 58 56 58 54 61 53 51 48 46 47
13 16 13 11 17 25 28 15 22 17 19 21 10 16 19 24 22 25 23 24 31 33 34 37 41 45 48 52 52 55 55 55 53 55 55 57 60 65 63 58 56 57 47 49
6 10 15 12 6 7 10 14 17 11 19 10 17 22 23 25 29 27 31 37 42 43 47 50 53 54 49 41 47 53 57 55 50 55 62 65 68 68 64 56 67 51 47 50
6 9 9 12 13 12 12 19 17 13 14 25 33 29 29 32 36 41 39 41 43 45 49 50 51 47 45 49 54 61 62 62 62 64 64 69 75 72 61 59 54 55 48 51
5 5 6 5 6 7 14 20 19 25 34 37 41 42 41 38 43 45 44 46 48 48 52 53 56 54 54 54 61 66 66 64 67 79 79 75 74 72 69 64 52 52 50 53
5 6 9 9 9 19 24 27 32 38 44 45 45 46 49 53 54 49 46 43 44 51 58 57 59 56 48 49 52 56 55 54 56 53 54 62 68 65 52 35 42 50 48 55
11 13 14 19 9 27 31 34 36 34 41 44 48 48 45 46 46 50 51 57 59 59 55 50 47 42 41 41 40 37 35 33 44 39 33 38 42 35 39 47 45 49 52 52
16 16 19 27 21 32 27 32 39 42 41 43 49 53 56 56 57 58 59 56 50 42 33 27 28 34 35 32 27 21 21 18 19 25 17 18 10 38 49 54 52 53 51 49
12 20 23 33 33 28 36 37 45 40 47 54 54 50 38 36 37 37 32 27 26 25 23 24 28 31 25 20 11 12 14 31 36 10 9 23 28 42 48 51 51 48 48 48

GFSCGP_700_spd_087.txt.gz
Wind_Speed
8 16 17 16 15 22 24 27 24 27 24 24 27 27 20 15 21 24 29 31 22 28 32 30 33 40 42 42 52 45 50 47 46 45 35 33 45 25 34 42 43 41 38 40
14 18 14 15 17 19 22 26 28 28 26 23 27 30 27 27 29 28 31 36 36 29 32 36 39 36 41 39 33 47 49 44 43 37 30 31 33 46 31 38 30 34 32 35
19 17 17 19 20 21 23 27 25 25 27 26 26 33 34 34 31 32 32 34 35 42 35 34 34 33 35 40 38 33 44 41 37 37 31 29 30 29 49 38 33 30 26 27
18 17 20 21 22 19 20 20 22 25 24 23 21 23 36 35 36 35 38 39 33 40 39 34 31 33 37 42 41 38 36 43 38 40 33 32 31 33 35 47 54 41 58 48
27 25 25 25 25 23 29 24 26 25 26 29 28 27 44 35 35 39 35 33 32 28 34 40 39 36 37 42 40 37 36 33 36 37 36 39 42 43 38 41 53 51 41 51
27 23 24 24 26 27 29 28 25 28 27 18 32 29 39 40 27 21 26 35 35 36 34 29 30 33 38 42 40 37 36 36 40 43 40 38 41 44 47 47 51 53 61 49
28 29 26 29 35 32 24 30 15 14 11 16 32 28 35 27 30 27 17 18 28 35 30 26 26 30 30 30 33 34 36 30 24 36 42 41 41 40 39 41 42 43 50 57
28 24 20 23 26 27 23 31 20 12 6 15 29 20 31 26 23 26 10 18 12 16 21 22 24 27 30 28 29 28 21 25 28 20 26 38 38 40 43 43 46 43 43 37
29 32 32 33 33 26 24 21 25 20 27 8 15 31 32 25 21 19 24 8 10 21 24 23 14 22 23 24 22 16 20 26 30 28 23 24 34 39 43 45 46 46 43 40
29 37 23 23 24 29 25 28 24 15 4 7 11 21 19 18 24 15 14 20 26 19 17 19 25 22 25 25 25 30 31 29 29 28 30 25 24 29 33 38 42 43 47 51
28 30 32 26 23 24 24 26 27 17 15 4 4 10 14 17 14 11 20 22 15 12 16 20 20 28 27 28 26 26 26 26 27 29 33 36 26 22 26 32 34 37 39 42
25 29 36 30 26 21 24 22 15 5 6 8 10 20 22 29 18 14 21 15 22 22 17 20 22 25 24 22 26 32 35 30 30 32 33 36 36 37 29 25 31 33 36 37
27 17 17 11 14 17 22 25 24 26 28 21 8 6 6 15 20 23 25 24 28 39 24 28 32 23 26 30 34 33 30 27 31 34 35 34 38 42 37 24 23 29 34 35
23 23 23 16 24 28 31 30 26 24 13 21 18 23 29 16 21 24 23 23 28 25 34 28 31 21 25 32 30 30 29 32 34 34 34 39 41 44 45 41 29 23 24 29
19 17 19 24 29 29 25 29 32 32 32 29 36 33 30 25 27 31 27 24 31 28 24 25 35 29 24 29 30 32 35 32 38 39 40 44 45 47 48 48 48 41 32 29
27 17 17 27 22 25 31 30 30 31 32 35 30 38 26 25 21 15 19 22 17 22 26 17 18 30 37 38 29 36 35 33 35 40 44 49 54 51 52 48 49 49 40 31
20 19 17 27 18 21 22 25 22 27 29 24 22 20 19 29 31 25 25 25 23 32 34 34 31 25 28 32 33 31 34 38 41 45 50 53 49 51 55 55 53 52 46 38
15 14 13 20 20 3 11 15 18 14 9 6 14 17 14 15 18 16 18 21 24 25 32 37 37 32 35 42 45 45 48 50 52 55 54 56 56 59 60 62 65 58 52 50
16 16 13 5 8 18 16 8 14 14 13 9 17 10 20 24 26 23 18 24 28 31 35 37 38 42 46 47 52 54 56 58 59 62 61 60 61 62 65 65 66 61 54 53
6 9 15 10 4 3 5 12 15 18 19 12 21 33 36 37 40 39 37 38 38 39 42 45 46 51 55 56 58 60 61 57 58 60 62 61 60 58 58 56 58 62 59 56
7 8 10 11 9 8 15 18 24 7 16 35 37 41 43 42 42 48 48 49 47 53 54 52 55 57 57 53 51 55 58 61 59 63 69 71 66 64 64 62 65 67 65 59
4 3 4 4 4 5 11 25 22 27 34 40 41 44 48 51 54 55 57 58 57 56 56 56 59 58 52 53 56 59 59 58 61 61 66 68 71 73 76 76 75 72 70 65
3 9 8 6 10 25 21 29 31 36 38 41 46 50 50 51 52 54 57 57 55 53 52 53 55 57 58 56 50 51 50 47 48 52 49 47 48 54 58 61 68 73 73 73
12 12 15 21 9 25 26 28 30 34 41 46 39 42 46 53 53 46 39 37 37 41 47 48 48 44 38 33 35 37 37 39 39 35 31 38 39 43 48 51 52 56 58 52
17 18 21 25 24 33 25 32 37 48 40 38 42 47 51 51 41 36 37 34 32 28 24 23 25 27 29 29 31 29 27 29 22 27 26 26 31 46 47 47 54 42 48 48
12 17 24 31 32 32 35 36 44 40 40 45 49 50 44 40 34 30 27 25 27 24 21 21 23 27 29 27 22 16 17 21 21 20 26 23 33 21 9 32 46 47 43 49